RPA4609 KLGA-KDCA

Flight info

Callsign RPA4609
Flight time N/A
Altitude 30000
Route BIGGY Q75 MXE CLIPR3
Aircraft E170/M-SDE3GILORVW/S

Departure

Time 2026-05-07 21:05
Airport LaGuardia Airport (KLGA)

Arrival

Time N/A
Airport Ronald Reagan Washington National Airport (KDCA)
Time Latitude Longitude Altitude Speed Heading
2026-05-07 20:02 40.77579 -73.87436 17 ft 0 kts 108°
2026-05-07 20:56 40.77580 -73.87441 17 ft 3 kts 108°
2026-05-07 20:56 40.77588 -73.87473 17 ft 3 kts 108°
2026-05-07 20:56 40.77600 -73.87495 19 ft 4 kts 170°
2026-05-07 20:57 40.77624 -73.87486 17 ft 4 kts 210°
2026-05-07 20:57 40.77645 -73.87469 17 ft 2 kts 212°
2026-05-07 20:57 40.77646 -73.87468 17 ft 0 kts 212°
2026-05-07 21:00 40.77640 -73.87473 17 ft 2 kts 211°
2026-05-07 21:00 40.77626 -73.87484 17 ft 2 kts 211°
2026-05-07 21:00 40.77616 -73.87493 17 ft 2 kts 211°
2026-05-07 21:00 40.77593 -73.87511 1 ft 5 kts 211°
2026-05-07 21:01 40.77567 -73.87549 17 ft 2 kts 266°
2026-05-07 21:01 40.77576 -73.87582 20 ft 6 kts 304°
2026-05-07 21:01 40.77605 -73.87640 20 ft 8 kts 285°
2026-05-07 21:01 40.77590 -73.87707 19 ft 9 kts 215°
2026-05-07 21:02 40.77532 -73.87756 19 ft 11 kts 211°
2026-05-07 21:02 40.77461 -73.87815 18 ft 13 kts 213°
2026-05-07 21:02 40.77375 -73.87886 18 ft 16 kts 212°
2026-05-07 21:02 40.77278 -73.87966 18 ft 17 kts 212°
2026-05-07 21:03 40.77187 -73.88041 18 ft 16 kts 212°
2026-05-07 21:03 40.77088 -73.88122 21 ft 17 kts 212°
2026-05-07 21:03 40.77004 -73.88207 24 ft 12 kts 223°
2026-05-07 21:03 40.76946 -73.88285 28 ft 10 kts 233°
2026-05-07 21:04 40.76916 -73.88357 28 ft 9 kts 258°
2026-05-07 21:04 40.76942 -73.88393 28 ft 7 kts 22°
2026-05-07 21:04 40.77187 -73.88195 21 ft 87 kts 31°
2026-05-07 21:04 40.77941 -73.87569 65 ft 163 kts 31°
2026-05-07 21:05 40.78982 -73.86690 813 ft 192 kts 25°
2026-05-07 21:05 40.80318 -73.86088 1910 ft 208 kts
2026-05-07 21:05 40.81765 -73.86189 3483 ft 216 kts 345°
2026-05-07 21:05 40.83347 -73.86809 4300 ft 260 kts 339°
2026-05-07 21:06 40.85054 -73.87587 4559 ft 260 kts 337°
2026-05-07 21:06 40.86676 -73.88369 5692 ft 234 kts 334°
2026-05-07 21:06 40.88098 -73.89342 6484 ft 232 kts 314°
2026-05-07 21:06 40.89058 -73.90986 7053 ft 229 kts 289°
2026-05-07 21:07 40.89409 -73.93013 7746 ft 227 kts 270°
2026-05-07 21:07 40.89223 -73.95085 8412 ft 229 kts 255°
2026-05-07 21:07 40.88562 -73.97017 9026 ft 238 kts 238°
2026-05-07 21:07 40.87691 -73.98870 9781 ft 236 kts 243°
2026-05-07 21:08 40.86974 -74.00823 10407 ft 241 kts 245°
2026-05-07 21:08 40.86199 -74.02896 10621 ft 258 kts 243°
2026-05-07 21:08 40.85309 -74.04973 11246 ft 261 kts 240°
2026-05-07 21:08 40.84358 -74.07018 11999 ft 260 kts 239°
2026-05-07 21:09 40.83404 -74.09035 12750 ft 261 kts 239°
2026-05-07 21:09 40.82445 -74.11091 13521 ft 262 kts 240°
2026-05-07 21:09 40.81494 -74.13159 14231 ft 264 kts 240°
2026-05-07 21:09 40.80548 -74.15238 14919 ft 264 kts 240°
2026-05-07 21:10 40.79590 -74.17340 15236 ft 271 kts 241°
2026-05-07 21:10 40.78607 -74.19458 15748 ft 263 kts 240°
2026-05-07 21:10 40.77654 -74.21503 16623 ft 263 kts 242°
2026-05-07 21:10 40.76706 -74.23569 17264 ft 268 kts 242°
2026-05-07 21:11 40.75732 -74.25689 17915 ft 273 kts 242°
2026-05-07 21:11 40.74743 -74.27833 18545 ft 276 kts 242°
2026-05-07 21:11 40.72795 -74.32014 20205 ft 272 kts 243°
2026-05-07 21:12 40.71815 -74.34139 21003 ft 272 kts 243°
2026-05-07 21:12 40.70833 -74.36254 21838 ft 271 kts 243°
2026-05-07 21:12 40.69842 -74.38375 22548 ft 271 kts 243°
2026-05-07 21:12 40.69185 -74.39789 23000 ft 272 kts 243°
2026-05-07 21:13 40.68197 -74.41918 23692 ft 272 kts 243°
2026-05-07 21:13 40.66872 -74.44745 24421 ft 275 kts 243°
2026-05-07 21:13 40.65864 -74.46877 24983 ft 276 kts 243°
2026-05-07 21:13 40.64849 -74.49024 25568 ft 277 kts 243°
2026-05-07 21:14 40.64175 -74.50451 25947 ft 278 kts 243°
2026-05-07 21:14 40.63147 -74.52626 26492 ft 280 kts 243°
2026-05-07 21:14 40.62120 -74.54806 27028 ft 281 kts 243°
2026-05-07 21:14 40.61087 -74.56986 27543 ft 283 kts 243°
2026-05-07 21:15 40.60035 -74.59194 28045 ft 284 kts 243°
2026-05-07 21:15 40.58979 -74.61412 28509 ft 287 kts 243°
2026-05-07 21:15 40.57919 -74.63632 28975 ft 288 kts 243°
2026-05-07 21:15 40.56852 -74.65864 29429 ft 290 kts 243°
2026-05-07 21:16 40.55775 -74.68116 29838 ft 291 kts 243°
2026-05-07 21:16 40.54690 -74.70381 30070 ft 297 kts 243°
2026-05-07 21:16 40.53566 -74.72732 29941 ft 310 kts 242°
2026-05-07 21:16 40.52396 -74.75171 29954 ft 320 kts 242°
2026-05-07 21:17 40.49945 -74.80256 29940 ft 337 kts 242°
2026-05-07 21:17 40.47427 -74.85461 29942 ft 338 kts 242°
2026-05-07 21:18 40.44909 -74.90668 29943 ft 338 kts 242°
2026-05-07 21:18 40.42372 -74.95880 29949 ft 339 kts 239°
2026-05-07 21:19 40.39120 -75.00447 29944 ft 343 kts 236°
2026-05-07 21:19 40.36054 -75.05234 29980 ft 344 kts 236°
2026-05-07 21:20 40.32824 -75.09882 29960 ft 344 kts 234°
2026-05-07 21:20 40.29527 -75.14468 29959 ft 345 kts 234°
2026-05-07 21:21 40.26272 -75.19091 29963 ft 342 kts 234°
2026-05-07 21:21 40.24707 -75.21301 29920 ft 326 kts 234°
2026-05-07 21:21 40.23159 -75.23503 30019 ft 333 kts 235°
2026-05-07 21:22 40.19972 -75.28040 29953 ft 344 kts 234°
2026-05-07 21:22 40.16696 -75.32649 29990 ft 349 kts 234°
2026-05-07 21:23 40.13396 -75.37294 29829 ft 348 kts 234°
2026-05-07 21:23 40.11761 -75.39585 29516 ft 336 kts 234°
2026-05-07 21:23 40.10202 -75.41717 29236 ft 316 kts 234°
2026-05-07 21:24 40.08725 -75.43725 29028 ft 297 kts 234°
2026-05-07 21:24 40.07336 -75.45630 28755 ft 282 kts 235°
2026-05-07 21:24 40.05996 -75.47504 28509 ft 290 kts 235°
2026-05-07 21:24 40.04614 -75.49462 28240 ft 298 kts 235°
2026-05-07 21:25 40.03181 -75.51453 27985 ft 300 kts 234°
2026-05-07 21:25 40.01755 -75.53405 27727 ft 300 kts 234°
2026-05-07 21:25 40.00321 -75.55359 27451 ft 298 kts 234°
2026-05-07 21:25 39.98889 -75.57322 27143 ft 300 kts 234°
2026-05-07 21:26 39.97450 -75.59307 26883 ft 300 kts 234°
2026-05-07 21:26 39.96019 -75.61276 26650 ft 298 kts 234°
2026-05-07 21:26 39.94594 -75.63235 26391 ft 298 kts 234°
2026-05-07 21:26 39.93173 -75.65182 26144 ft 296 kts 234°
2026-05-07 21:27 39.91843 -75.67221 25895 ft 290 kts 243°
2026-05-07 21:27 39.90849 -75.69477 26076 ft 289 kts 242°
2026-05-07 21:27 39.89668 -75.71656 25663 ft 298 kts 238°
2026-05-07 21:27 39.88407 -75.73763 25204 ft 292 kts 238°
2026-05-07 21:28 39.87197 -75.75868 24809 ft 287 kts 239°
2026-05-07 21:28 39.86058 -75.77997 24421 ft 287 kts 240°
2026-05-07 21:28 39.84955 -75.80153 24022 ft 285 kts 241°
2026-05-07 21:28 39.83881 -75.82267 23681 ft 281 kts 240°
2026-05-07 21:29 39.82792 -75.84390 23262 ft 282 kts 240°
2026-05-07 21:29 39.81690 -75.86501 22930 ft 282 kts 240°
2026-05-07 21:29 39.80587 -75.88602 22561 ft 281 kts 240°
2026-05-07 21:29 39.79490 -75.90694 22159 ft 281 kts 240°
2026-05-07 21:30 39.78391 -75.92795 21824 ft 279 kts 240°
2026-05-07 21:30 39.77291 -75.94895 21400 ft 280 kts 240°
2026-05-07 21:30 39.76214 -75.96950 21064 ft 279 kts 240°
2026-05-07 21:30 39.75122 -75.99031 20699 ft 278 kts 240°
2026-05-07 21:31 39.74025 -76.01119 20301 ft 279 kts 240°
2026-05-07 21:31 39.72937 -76.03186 19964 ft 277 kts 240°
2026-05-07 21:31 39.71844 -76.05266 19591 ft 277 kts 240°
2026-05-07 21:31 39.70762 -76.07323 19214 ft 278 kts 240°
2026-05-07 21:32 39.69668 -76.09405 18854 ft 277 kts 240°
2026-05-07 21:32 39.68596 -76.11441 18483 ft 277 kts 240°
2026-05-07 21:32 39.67512 -76.13500 18114 ft 276 kts 240°
2026-05-07 21:32 39.66422 -76.15551 17889 ft 275 kts 240°
2026-05-07 21:33 39.65341 -76.17600 17487 ft 280 kts 240°
2026-05-07 21:33 39.64248 -76.19680 17145 ft 275 kts 240°
2026-05-07 21:33 39.63173 -76.21727 16764 ft 276 kts 240°
2026-05-07 21:33 39.62091 -76.23782 16422 ft 273 kts 239°
2026-05-07 21:34 39.61013 -76.25819 16023 ft 274 kts 239°
2026-05-07 21:34 39.59928 -76.27858 15681 ft 274 kts 239°
2026-05-07 21:34 39.58689 -76.29755 15320 ft 281 kts 227°
2026-05-07 21:34 39.57081 -76.31184 14950 ft 286 kts 221°
2026-05-07 21:35 39.55461 -76.32697 14545 ft 278 kts 224°
2026-05-07 21:35 39.53957 -76.34155 14184 ft 269 kts 224°
2026-05-07 21:35 39.52459 -76.35544 13845 ft 262 kts 223°
2026-05-07 21:35 39.50973 -76.36865 13488 ft 254 kts 221°
2026-05-07 21:36 39.49525 -76.38115 13151 ft 248 kts 221°
2026-05-07 21:36 39.48090 -76.39341 12861 ft 247 kts 221°
2026-05-07 21:36 39.46642 -76.40595 12485 ft 252 kts 221°
2026-05-07 21:36 39.45202 -76.41849 12258 ft 248 kts 222°
2026-05-07 21:37 39.43755 -76.43106 12122 ft 253 kts 221°
2026-05-07 21:37 39.42289 -76.44380 11848 ft 254 kts 221°
2026-05-07 21:37 39.40833 -76.45635 11794 ft 249 kts 221°
2026-05-07 21:37 39.39387 -76.46890 11684 ft 253 kts 221°
2026-05-07 21:38 39.37933 -76.48155 11587 ft 251 kts 221°
2026-05-07 21:38 39.36481 -76.49413 11487 ft 252 kts 221°
2026-05-07 21:38 39.35034 -76.50665 11423 ft 250 kts 221°
2026-05-07 21:38 39.33581 -76.51923 11264 ft 251 kts 220°
2026-05-07 21:39 39.32153 -76.53154 11215 ft 250 kts 220°
2026-05-07 21:39 39.30680 -76.54424 11058 ft 251 kts 220°
2026-05-07 21:39 39.29249 -76.55656 10984 ft 250 kts 220°
2026-05-07 21:39 39.27804 -76.56906 10832 ft 249 kts 220°
2026-05-07 21:40 39.26364 -76.58154 10747 ft 250 kts 220°
2026-05-07 21:40 39.24927 -76.59392 10610 ft 249 kts 220°
2026-05-07 21:40 39.23477 -76.60641 10559 ft 253 kts 220°
2026-05-07 21:40 39.22014 -76.61902 10409 ft 252 kts 220°
2026-05-07 21:41 39.20555 -76.63155 10315 ft 251 kts 220°
2026-05-07 21:41 39.19097 -76.64406 10195 ft 251 kts 220°
2026-05-07 21:41 39.17636 -76.65665 10014 ft 251 kts 220°
2026-05-07 21:41 39.16213 -76.66927 10056 ft 246 kts 223°
2026-05-07 21:42 39.14944 -76.68352 10130 ft 246 kts 229°
2026-05-07 21:42 39.13726 -76.69955 10077 ft 248 kts 230°
2026-05-07 21:42 39.12546 -76.71513 10051 ft 246 kts 229°
2026-05-07 21:42 39.11312 -76.73050 10035 ft 247 kts 228°
2026-05-07 21:43 39.10033 -76.74575 9273 ft 250 kts 227°
2026-05-07 21:43 39.08760 -76.76054 8658 ft 248 kts 226°
2026-05-07 21:43 39.07492 -76.77516 8709 ft 246 kts 226°
2026-05-07 21:43 39.06253 -76.78962 8476 ft 251 kts 226°
2026-05-07 21:44 39.05088 -76.80341 8256 ft 248 kts 226°
2026-05-07 21:44 39.03805 -76.81864 8132 ft 252 kts 226°
2026-05-07 21:44 39.02873 -76.82971 7961 ft 254 kts 226°
2026-05-07 21:45 39.02855 -76.82992 7947 ft 254 kts 226°
2026-05-07 21:45 39.01956 -76.84056 7871 ft 252 kts 226°
2026-05-07 21:45 39.00657 -76.85588 7696 ft 254 kts 226°
2026-05-07 21:46 38.99353 -76.87122 7443 ft 254 kts 226°
2026-05-07 21:46 38.98130 -76.88743 7166 ft 250 kts 237°
2026-05-07 21:46 38.97491 -76.90788 6942 ft 249 kts 260°
2026-05-07 21:46 38.97426 -76.93026 6583 ft 253 kts 268°
2026-05-07 21:47 38.97413 -76.95274 6216 ft 252 kts 269°
2026-05-07 21:47 38.97435 -76.97523 5908 ft 249 kts 271°
2026-05-07 21:47 38.97498 -76.99744 5565 ft 248 kts 273°
2026-05-07 21:47 38.97732 -77.01913 5257 ft 245 kts 290°
2026-05-07 21:48 38.98645 -77.03734 4943 ft 243 kts 313°
2026-05-07 21:48 38.99819 -77.05253 4570 ft 242 kts 314°
2026-05-07 21:48 39.01003 -77.06801 4280 ft 238 kts 314°
2026-05-07 21:48 39.02162 -77.08286 3971 ft 239 kts 316°
2026-05-07 21:49 39.03375 -77.09751 3864 ft 238 kts 318°
2026-05-07 21:49 39.04595 -77.11196 3739 ft 240 kts 318°
2026-05-07 21:49 39.05802 -77.12663 3665 ft 236 kts 317°
2026-05-07 21:49 39.06941 -77.14088 3643 ft 222 kts 317°
2026-05-07 21:50 39.08013 -77.15448 3605 ft 208 kts 317°
2026-05-07 21:50 39.08994 -77.16668 3774 ft 182 kts 318°
2026-05-07 21:50 39.09924 -77.17794 3792 ft 185 kts 317°
2026-05-07 21:50 39.10864 -77.18930 3805 ft 186 kts 317°
2026-05-07 21:51 39.11754 -77.20153 3743 ft 190 kts 304°
2026-05-07 21:51 39.12022 -77.21814 3661 ft 197 kts 266°
2026-05-07 21:51 39.11345 -77.23371 3744 ft 210 kts 227°
2026-05-07 21:51 39.09970 -77.24143 3747 ft 227 kts 189°
2026-05-07 21:52 39.08414 -77.23714 3746 ft 234 kts 152°
2026-05-07 21:52 39.07047 -77.22604 3740 ft 233 kts 145°
2026-05-07 21:52 39.06607 -77.22230 3705 ft 235 kts 148°
2026-05-07 21:53 39.06070 -77.21834 3696 ft 234 kts 152°
2026-05-07 21:53 39.04402 -77.20819 3856 ft 301 kts 156°
2026-05-07 21:53 39.02260 -77.19508 4103 ft 357 kts 154°
2026-05-07 21:53 39.01535 -77.19047 4464 ft 357 kts 155°